TimeCST,TemperatureF,Dew PointF,Humidity,Sea Level PressureIn,VisibilityMPH,Wind Direction,Wind SpeedMPH,Gust SpeedMPH,PrecipitationIn,Events,Conditions,WindDirDegrees,DateUTC
12:55 AM,24.8,12.2,59,30.28,10.0,ENE,5.8,-,N/A,,Clear,70,2013-01-22 06:55:00
1:15 AM,23.0,12.2,63,30.28,10.0,ENE,4.6,-,N/A,,Clear,70,2013-01-22 07:15:00
1:55 AM,23.0,14.0,68,30.27,10.0,ENE,4.6,-,N/A,,Clear,70,2013-01-22 07:55:00
2:15 AM,23.0,12.2,63,30.27,10.0,East,3.5,-,N/A,,Clear,100,2013-01-22 08:15:00
2:35 AM,23.0,14.0,68,30.26,10.0,East,3.5,-,N/A,,Clear,100,2013-01-22 08:35:00
3:15 AM,24.8,12.2,59,30.26,10.0,ESE,8.1,-,N/A,,Clear,110,2013-01-22 09:15:00
3:35 AM,24.8,12.2,59,30.26,10.0,East,5.8,-,N/A,,Clear,90,2013-01-22 09:35:00
4:15 AM,23.0,14.0,68,30.26,10.0,NE,5.8,-,N/A,,Clear,50,2013-01-22 10:15:00
4:35 AM,21.2,14.0,74,30.26,10.0,East,5.8,-,N/A,,Clear,90,2013-01-22 10:35:00
4:56 AM,21.2,14.0,74,30.25,10.0,East,5.8,-,N/A,,Clear,90,2013-01-22 10:56:00
5:15 AM,21.2,14.0,74,30.26,10.0,East,4.6,-,N/A,,Clear,90,2013-01-22 11:15:00
5:35 AM,23.0,15.8,74,30.26,10.0,East,3.5,-,N/A,,Clear,100,2013-01-22 11:35:00
5:55 AM,23.0,14.0,68,30.26,10.0,ESE,5.8,-,N/A,,Clear,110,2013-01-22 11:55:00
6:16 AM,23.0,12.2,63,30.27,10.0,ESE,5.8,-,N/A,,Clear,110,2013-01-22 12:16:00
6:35 AM,23.0,12.2,63,30.27,10.0,ESE,5.8,-,N/A,,Clear,120,2013-01-22 12:35:00
6:55 AM,23.0,12.2,63,30.27,10.0,ESE,6.9,-,N/A,,Clear,120,2013-01-22 12:55:00
7:35 AM,24.8,14.0,64,30.27,10.0,ESE,6.9,-,N/A,,Clear,120,2013-01-22 13:35:00
7:55 AM,24.8,14.0,64,30.27,10.0,ESE,6.9,-,N/A,,Clear,120,2013-01-22 13:55:00
8:15 AM,24.8,15.8,69,30.27,10.0,ESE,8.1,-,N/A,,Clear,120,2013-01-22 14:15:00
8:35 AM,26.6,15.8,64,30.28,10.0,ESE,5.8,-,N/A,,Clear,110,2013-01-22 14:35:00
8:55 AM,28.4,15.8,59,30.29,10.0,ESE,6.9,-,N/A,,Clear,110,2013-01-22 14:55:00
9:15 AM,30.2,15.8,55,30.29,10.0,ESE,6.9,-,N/A,,Clear,120,2013-01-22 15:15:00
9:55 AM,33.8,17.6,52,30.28,10.0,SSE,10.4,-,N/A,,Scattered Clouds,160,2013-01-22 15:55:00
10:15 AM,33.8,19.4,56,30.27,10.0,South,11.5,16.1,N/A,,Clear,170,2013-01-22 16:15:00
10:35 AM,35.6,19.4,52,30.26,10.0,South,11.5,-,N/A,,Clear,190,2013-01-22 16:35:00
10:56 AM,37.4,19.4,48,30.27,10.0,South,9.2,-,N/A,,Scattered Clouds,180,2013-01-22 16:56:00
11:15 AM,37.4,19.4,48,30.28,10.0,South,4.6,-,N/A,,Overcast,190,2013-01-22 17:15:00
11:35 AM,37.4,19.4,48,30.29,10.0,Calm,Calm,-,N/A,,Overcast,0,2013-01-22 17:35:00
12:15 PM,37.4,19.4,48,30.27,10.0,Calm,Calm,-,N/A,,Overcast,0,2013-01-22 18:15:00
12:35 PM,39.2,21.2,49,30.27,10.0,Calm,Calm,-,N/A,,Overcast,0,2013-01-22 18:35:00
1:15 PM,42.8,21.2,42,30.24,10.0,WSW,5.8,-,N/A,,Clear,240,2013-01-22 19:15:00
1:35 PM,44.6,21.2,39,30.23,10.0,South,8.1,-,N/A,,Clear,180,2013-01-22 19:35:00
1:56 PM,44.6,23.0,43,30.22,10.0,SSW,6.9,-,N/A,,Clear,200,2013-01-22 19:56:00
2:15 PM,44.6,23.0,43,30.22,10.0,SSW,8.1,-,N/A,,Clear,210,2013-01-22 20:15:00
2:35 PM,44.6,23.0,43,30.21,10.0,SSW,4.6,-,N/A,,Clear,200,2013-01-22 20:35:00
3:15 PM,46.4,23.0,40,30.22,10.0,South,8.1,-,N/A,,Clear,190,2013-01-22 21:15:00
3:35 PM,46.4,23.0,40,30.21,10.0,SSW,6.9,-,N/A,,Clear,200,2013-01-22 21:35:00
3:55 PM,46.4,23.0,40,30.21,10.0,SW,6.9,-,N/A,,Mostly Cloudy,220,2013-01-22 21:55:00
4:16 PM,46.4,23.0,40,30.20,10.0,SSW,10.4,-,N/A,,Mostly Cloudy,210,2013-01-22 22:16:00
4:35 PM,46.4,23.0,40,30.20,10.0,SSW,9.2,-,N/A,,Partly Cloudy,210,2013-01-22 22:35:00
4:55 PM,44.6,21.2,39,30.18,10.0,SSW,8.1,-,N/A,,Clear,210,2013-01-22 22:55:00
5:35 PM,42.8,21.2,42,30.19,10.0,South,5.8,-,N/A,,Clear,190,2013-01-22 23:35:00
5:55 PM,39.2,21.2,49,30.19,10.0,South,4.6,-,N/A,,Clear,180,2013-01-22 23:55:00
6:15 PM,39.2,21.2,49,30.20,10.0,South,5.8,-,N/A,,Clear,190,2013-01-23 00:15:00
6:55 PM,37.4,21.2,52,30.20,10.0,South,5.8,-,N/A,,Clear,180,2013-01-23 00:55:00
7:15 PM,37.4,21.2,52,30.21,10.0,South,4.6,-,N/A,,Clear,180,2013-01-23 01:15:00
7:55 PM,35.6,21.2,56,30.20,10.0,South,4.6,-,N/A,,Clear,180,2013-01-23 01:55:00
8:15 PM,35.6,21.2,56,30.21,10.0,South,5.8,-,N/A,,Clear,170,2013-01-23 02:15:00
8:35 PM,33.8,21.2,60,30.22,10.0,South,3.5,-,N/A,,Clear,170,2013-01-23 02:35:00
8:56 PM,33.8,21.2,60,30.21,10.0,SSE,3.5,-,N/A,,Clear,150,2013-01-23 02:56:00
9:15 PM,33.8,21.2,60,30.22,10.0,SSE,4.6,-,N/A,,Clear,160,2013-01-23 03:15:00
9:35 PM,32.0,21.2,64,30.22,10.0,SSE,4.6,-,N/A,,Clear,150,2013-01-23 03:35:00
10:15 PM,30.2,19.4,64,30.22,10.0,SSE,3.5,-,N/A,,Clear,150,2013-01-23 04:15:00
10:35 PM,30.2,19.4,64,30.22,10.0,SSE,5.8,-,N/A,,Clear,160,2013-01-23 04:35:00
10:55 PM,28.4,19.4,69,30.23,10.0,SSE,4.6,-,N/A,,Clear,160,2013-01-23 04:55:00
11:16 PM,30.2,19.4,64,30.23,10.0,SSE,4.6,-,N/A,,Clear,160,2013-01-23 05:16:00
11:35 PM,28.4,19.4,69,30.23,10.0,South,4.6,-,N/A,,Clear,170,2013-01-23 05:35:00
11:55 PM,28.4,19.4,69,30.24,10.0,South,3.5,-,N/A,,Clear,170,2013-01-23 05:55:00